Volver al catálogo

SCOUT B DEB

LostUNKNOWN
NORAD 28797·DEBRIS·🇺🇸 United States

Lanzado Aug 10, 1965 desde Wallops Flight Facility

Loading…

Próximos Pases (próximas 24 horas)

TLE

ObsoletoSource: Space-Track

Época: Jan 3, 2025, 12:14 UTC

1 28797U 65063G   25003.51037046  .00003408  00000-0  22033-1 0  9995
2 28797  69.1986  93.7784 0690288 326.0134  46.1766 11.97774305130181

Sigue SCOUT B DEB en tiempo real con AllMySat

Download on the App Store